Retour au catalogue

PRAETORIAN SDA_519

ActifPO
NORAD 100077·PAYLOAD·🇺🇸 United States

Lancé Jul 16, 2026 depuis Vandenberg Space Force Base

Loading…

Prochains Passages (prochaines 24 heures)

TLE

FraisSource: Space-Track

Époque: Sep 14, 2026, 16:35 UTC

1 A0077U 26163U   26257.69118049  .00000140  00000-0  11180-3 0  9991
2 A0077  81.4807 255.2822 0014734  54.9438 305.3099 13.85570032  8294

Suivez PRAETORIAN SDA_519 en temps réel avec AllMySat

Download on the App Store